Flag for Austria Weather past 2 weeks in Fürstenfeld, Styria, Austria

Now
71 °F

Mild.


Feels Like: 69 °F
Forecast: 66 / 86 °F
Wind: 1 mph from North

Location: Murska Sobota

Current Time: Jul 7, 2015 at 2:34:31 AM

Latest Report: Jul 7, 2015 at 1:00 AM


Visibility: N/A

Pressure: 30.05 "Hg

Humidity: 88%

Dew point: 68 °F

Location of FürstenfeldLocation

Historic Weather in Fürstenfeld — Graph

°F

Fürstenfeld temperature yesterday

Maximum temperature yesterday: 95 °F (at 4:00 PM)
Minimum temperature yesterday: 60 °F (at 5:00 AM)
Average temperature yesterday: 79 °F

Past Weeks' High & Low Weather Summary

 TemperatureHumidityPressure
High95 °F (Jul 6, 4:00 PM)98% (Jun 24, 6:00 AM)30.31 "Hg (Jun 24, 6:00 AM)
Low49 °F (Jun 25, 5:00 AM)36% (Jul 4, 12:00 PM)29.78 "Hg (Jun 23, 5:00 AM)
Average68 °F72%30.11 "Hg
* Reported Jun 22 1:00 AM — Jul 7 1:00 AM, Fürstenfeld, Weather by CustomWeather, © 2015

Note: Actual official high and low records may vary slightly from our data, if they occured in-between our weather recording intervals... More about our weather records

Advertising

Fürstenfeld weather history for previous 24 hours

 ConditionsComfort  
Time TempWeatherWind HumidityBarometerVisibility
1:00 AM
Tue, Jul 7
71 °FMild.1 mph88%30.05 "HgN/A
12:00 AM73 °FMild.1 mph86%30.05 "HgN/A
11:00 PM
Mon, Jul 6
75 °FMild.1 mph83%30.05 "HgN/A
10:00 PM80 °FWarm.1 mph72%30.03 "HgN/A
9:00 PM84 °FWarm.1 mph67%30.02 "HgN/A
8:00 PM89 °FPassing clouds.1 mph55%30.01 "Hg12 mi
7:00 PM91 °FHot.2 mph50%30.00 "HgN/A
6:00 PM92 °FHot.2 mph46%29.99 "HgN/A
5:00 PM94 °FExtremely hot.1 mph40%30.01 "HgN/A
4:00 PM95 °FExtremely hot.2 mph40%30.00 "HgN/A
3:00 PM93 °FPartly sunny.3 mph41%30.01 "Hg12 mi
2:00 PM93 °FScattered clouds.3 mph39%30.00 "Hg12 mi
1:00 PM91 °FHot.2 mph45%30.01 "HgN/A
12:00 PM89 °FHot.2 mph49%30.02 "HgN/A
11:00 AM86 °FWarm.1 mph53%30.03 "HgN/A
10:00 AM83 °FWarm.3 mph55%30.03 "HgN/A
9:00 AM78 °FWarm.2 mph66%30.02 "HgN/A
8:00 AM71 °FPassing clouds.1 mph79%30.02 "Hg6 mi
7:00 AM66 °FPassing clouds.No wind89%30.01 "Hg6 mi
6:00 AM62 °FCool.1 mph95%30.01 "HgN/A
5:00 AM60 °FCool.1 mph96%30.03 "HgN/A
4:00 AM61 °FCool.1 mph96%30.02 "HgN/A
3:00 AM62 °FCool.No wind95%30.03 "HgN/A
2:00 AM62 °FCool.1 mph95%30.03 "HgN/A
Weather by CustomWeather, © 2015

See weather overviewHow to use our weather pages